Orbital Elements at Epoch 2453612.5 (2005-Aug-30.0) TDB
Reference: JPL 19 (heliocentric ecliptic J2000)
Element | Value | Uncertainty (1-sigma) | Units |
e | .5294518760783127 | 4.0298e-07 | |
a | 3.628326437681936 | 1.5093e-07 | au |
q | 1.707302198226694 | 1.4914e-06 | au |
i | 10.07952060977841 | 4.6085e-05 | deg |
node | 309.4417698756743 | 0.00011706 | deg |
peri | 95.64910660338207 | 0.00017981 | deg |
M | 5.860581634597394 | 6.9623e-05 | deg |
tp | 2453571.404319544281 (2005-Jul-19.90431954) | 0.00048715 | TDB |
period | 2524.398751946602 6.91 | 0.00015751 4.312e-07 | d yr |
n | .1426082150145252 | 8.898e-09 | deg/d |
Q | 5.549350677137179 | 2.3083e-07 | au |
|
Additional Model Parameters
Parameter | Value | Uncertainty (1-sigma) |
A2 [EST] | -9.70461262058737E-11 | 2.247E-12 |
|
| | Orbit Determination Parameters
Additional Information
|